Regional Weather Roundup
Issued by NWS Albany, NY

Home | Current Version | Previous Version | Text Only | Print | Product List | Glossary On
Versions: 1 2 3 4 5 6 7 8 9 10 11 12 13 14 15 16 17 18 19 20 21 22 23 24 25 26 27
000
ASUS41 KALY 300010
RWRALY

NEW YORK STATE HOURLY WEATHER ROUNDUP
NATIONAL WEATHER SERVICE ALBANY NY
800 PM EDT WED MAR 29 2017

NOTE: "FAIR" INDICATES FEW OR NO CLOUDS BELOW 12,000 FEET WITH NO
SIGNIFICANT WEATHER AND/OR NO OBSTRUCTIONS TO VISIBILITY.

NYZ032-033-038>043-046>054-057>066-NYZ062>081-082-084-300100-
EAST


CITY           SKY/WX    TMP DP  RH WIND       PRES   REMARKS
ALBANY         MOCLDY    41  21  44 N7        30.23R
GLENS FALLS    MOCLDY    39  20  46 CALM      30.23R
POUGHKEEPSIE   CLEAR     44  22  41 N15       30.17R
NEWBURGH       CLEAR     46  25  42 N12       30.17R
MONTGOMERY     CLEAR     46  24  42 NW13G21   30.16R
WHITE PLAINS   PTCLDY    47  23  38 N9G21     30.13R
ISLIP          PTCLDY    47  25  42 N14G25    30.12R
NEW YORK CITY  PTCLDY    53  25  33 N13       30.14R
CENTRAL PARK   CLEAR     51  23  33 N9G20     30.16R
$$

NYZ005>009-017-018-044>046-055-056-300100-
CENTRAL


CITY           SKY/WX    TMP DP  RH WIND       PRES   REMARKS
FULTON         PTCLDY    37  26  64 NW5       30.30S WCI  33
SYRACUSE       MOCLDY    38  23  55 NW9       30.29S WCI  31
ROME           PTCLDY    38  23  55 N7        30.29R WCI  33
ELMIRA         CLEAR     41  24  51 NE8       30.26R
BINGHAMTON     CLOUDY    36  22  56 N13       30.22R WCI  27
MONTICELLO     CLEAR     37  25  60 NW15G21   30.19R WCI  28
$$

NYZ026>034-041>043-087-300100-
NORTH


CITY           SKY/WX    TMP DP  RH WIND       PRES   REMARKS
WATERTOWN      CLEAR     34  24  67 CALM      30.29S
FORT DRUM      NOT AVBL
MASSENA        PTCLDY    39  22  50 NW6       30.30R WCI  35
SARANAC LAKE   CLOUDY    33  20  58 VRB3      30.19R
PLATTSBURGH    CLOUDY    40  21  46 NW16G23   30.23R WCI  31
$$

NYZ001>004-010>016-019>021-085-300100-
WEST


CITY           SKY/WX    TMP DP  RH WIND       PRES   REMARKS
NIAGARA FALLS  PTCLDY    45  29  53 NE8       30.28R
BUFFALO        CLOUDY    44  27  51 NE8       30.27R
DUNKIRK        PTCLDY    38  34  85 N6        30.27R WCI  33
JAMESTOWN      CLEAR     43  25  49 NE6       30.23R
WELLSVILLE     CLEAR     40  26  57 N7        30.22R
ROCHESTER      CLOUDY    40  26  57 E6        30.30S
PENN YAN       CLEAR     40  25  55 VRB3      30.27S
$$

             KEY
       WCI = WIND CHILL INDEX
       VSB = VISIBILITY
       HX  = HEAT INDEX
$$




USA.gov is the U.S. government's official web portal to all federal, state and local government web resources and services.